Location: F?ge?el
(45.8833°N, 22.5833°E)
Time: 13:02:23
(UTC+00:00)

NOSS 3 (A) - Pass Details

Date: 17 November 2025
Orbit: 160 x 953 km, 63.3° (Epoch: 23 April)

Event Time Altitude Azimuth Distance (km) Brightness Sun altitude
Rises 16:14:48 0° 230° (SW) 1,596 8.9 -13.6°
Reaches altitude 10° 16:16:39 10° 240° (WSW) 778 7.4 -14.0°
Enters shadow 16:18:10 33° 307° (NW) 305 4.4 -14.2°
